Location: Church of Christ
(33.3587°N, 97.6961°W)
Time: 21:39:24
(UTC+00:00)

Daily predictions for brighter satellites

Satellite Brightness Start Highest point End
(mag) Time Altitude Azimuth Time Altitude Azimuth Time Altitude Azimuth
ASTEX 1 3.3 12:01:56 10° N 12:06:49 72° W 12:11:42 10° SSW
SJ-12 4.3 12:07:51 10° NNE 12:11:41 62° E 12:15:31 10° S
Cosmos 1707 Rocket 4.0 12:11:02 33° WNW 12:12:03 38° W 12:16:02 10° SSW
ARIANE 5 R/B 2.6 12:07:18 10° NNE 12:12:24 77° ESE 12:17:23 10° S
Okean 3 4.2 12:15:23 29° W 12:15:23 29° W 12:18:42 10° SSW
Okean 2 4.0 12:20:27 28° WNW 12:21:04 30° W 12:24:32 10° SSW
Meteor 1-22 Rocket 4.5 12:15:33 10° S 12:21:27 77° E 12:27:10 10° NNE
Nadezhda 4 Rocket 4.0 12:16:39 10° N 12:22:56 82° W 12:29:14 10° S
CENTAUR R/B 3.6 12:14:36 10° NNW 12:23:21 72° ENE 12:32:44 10° SE
Meteor 2-10 Rocket 3.4 12:19:04 10° SSW 12:24:12 75° W 12:29:36 10° N
Cosmos 1844 3.7 12:18:56 10° SSW 12:24:36 86° WNW 12:30:23 10° NNE
Cosmos 44 3.7 12:22:26 10° NNW 12:26:42 54° ENE 12:31:04 10° SE
CZ-2D R/B 2.8 12:23:33 10° N 12:26:58 79° WNW 12:30:22 10° SSW
Cosmos 1470 Rocket 4.2 12:23:34 10° SW 12:27:34 33° W 12:31:34 10° NNW
SKYMED 2 4.3 12:27:17 10° SSW 12:31:10 32° W 12:34:46 12° NW
Cosmos 2285 Rocket 4.2 12:30:29 10° SW 12:36:37 49° WNW 12:42:50 10° N
Cosmos 1933 Rocket 3.7 12:37:51 10° SSW 12:42:01 48° W 12:46:13 10° N
Cosmos 1825 1.4 12:40:27 10° N 12:43:28 87° WSW 12:46:25 10° S
IRS-P3 4.1 12:38:45 10° N 12:44:04 71° WNW 12:49:22 10° SSW
Cosmos 1869 Rocket 3.4 12:40:24 10° S 12:44:41 80° W 12:49:02 10° N
Meteor 2-5 Rocket 4.4 12:40:19 10° N 12:46:13 63° E 12:52:01 10° SSE
Cosmos 1943 3.2 12:41:29 10° NNW 12:47:03 67° WSW 12:52:35 10° S
IRS-1C 4.4 12:42:26 10° N 12:47:30 47° WNW 12:52:33 10° SW
Cosmos 1300 4.0 12:47:53 10° WSW 12:49:54 15° WNW 12:51:56 10° NW
SL-4 R/B 3.0 12:49:13 10° SSW 12:52:14 38° SE 12:55:17 10° ENE
Cosmos 2034 Rocket 4.4 12:47:01 10° SSW 12:52:49 41° W 12:58:37 10° N
OAO 3 Copernicus 4.4 12:50:09 10° WSW 12:55:11 84° SSE 13:00:13 10° ENE
Cosmos 1486 Rocket 4.0 12:51:03 10° SSW 12:56:16 85° WNW 13:01:34 10° NNE
Cosmos 1703 Rocket 3.9 12:54:34 10° NNW 12:58:42 43° W 13:02:47 10° SSW
SL-16 R/B 3.9 12:59:58 10° WNW 13:02:22 13° W 13:04:44 10° WSW
ADEOS Rocket 3.8 12:58:21 10° N 13:03:40 31° WNW 13:09:26 10° SW
Cosmos 1892 2.5 13:03:34 10° NNW 13:06:46 48° W 13:09:55 10° S
Cosmos 1503 Rocket 4.3 13:02:13 10° S 13:07:24 75° ESE 13:12:34 10° NNE
SL-19 R/B 4.1 13:02:39 10° N 13:07:53 74° WNW 13:13:03 10° SSW
SL-08 R/B 3.4 13:03:32 10° SSE 13:08:17 88° E 13:13:10 10° NNW
Cosmos 1092 Rocket 4.1 13:02:23 10° N 13:08:40 71° W 13:14:58 10° S
PSLV R/B 3.4 13:05:55 10° N 13:10:06 78° WNW 13:14:17 10° SSW
ACS3 Solar Sail 3.7 13:04:54 10° NNE 13:10:30 35° E 13:15:57 10° SSE
